Regional Weather Roundup
Issued by NWS

Home | Current Version | Previous Version | Text Only | Print | Product List | Glossary On
Versions: 1 2 3 4 5 6 7 8 9 10 11 12 13 14 15 16 17 18 19 20 21 22 23 24 25 26 27 28 29 30 31 32 33 34 35 36 37 38 39 40 41 42 43 44 45 46 47 48 49 50
000
ASUS45 KREV 061110
RWRNV
NEVADA REGIONAL WEATHER ROUNDUP
NATIONAL WEATHER SERVICE RENO NV
300 AM PST TUE DEC 06 2016

NOTE: "FAIR" INDICATES FEW OR NO CLOUDS BELOW 12,000 FEET WITH NO
SIGNIFICANT WEATHER AND/OR OBSTRUCTIONS TO VISIBILITY.

NVZ001-003-004-061200-
WESTERN NEVADA

CITY           SKY/WX    TMP DP  RH WIND       PRES   REMARKS
RENO           CLEAR     30   6  36 CALM      29.87F
CARSON CITY    FAIR      37   0  20 SE5       29.89F
PYRAMID LAKE     N/A     32 N/A N/A W5          N/A
FALLON         CLEAR     17  12  80 S3        29.90F
LOVELOCK       CLEAR     13   9  84 S5        29.91F
HAWTHORNE        N/A    N/A N/A N/A CALM      29.91F
$$

NVZ002-CAZ072-073-061200-
NORTHERN AND CENTRAL SIERRA

CITY           SKY/WX    TMP DP  RH WIND       PRES   REMARKS
S. LAKE TAHOE  CLEAR     27   5  39 SE8       29.90F
TRUCKEE        CLEAR     21   7  53 CALM      29.91F
SQUAW VLY 8000   N/A     23   3  42 W9          N/A
SUSANVILLE     CLEAR    N/A N/A N/A CALM      29.92S
MAMMOTH LAKES  FAIR      35   7  30 W22G40    29.91F
BRIDGEPORT       N/A     32  -7  18 W9        29.88F
$$

NVZ030-031-036-061200-
NORTHERN NEVADA

CITY           SKY/WX    TMP DP  RH WIND       PRES   REMARKS
ELKO           PTCLDY    13   8  81 CALM      29.87F
WINNEMUCCA     CLEAR      8   6  92 SE5       29.90F
WENDOVER       CLEAR     16   0  48 CALM      29.92F
$$

NVZ035-037-061200-
CENTRAL NEVADA

CITY           SKY/WX    TMP DP  RH WIND       PRES   REMARKS
ELY            PTCLDY     7   3  84 S12       29.85F WCI  -8
EUREKA           N/A      9   4  80 CALM      29.83F
$$

NVZ013-014-061200-
SOUTH CENTRAL NEVADA

CITY           SKY/WX    TMP DP  RH WIND       PRES   REMARKS
TONOPAH        CLOUDY    29  10  45 N9        29.87F
$$

NVZ017-020-022-061200-
SOUTHERN NEVADA

CITY           SKY/WX    TMP DP  RH WIND       PRES   REMARKS
LAS VEGAS      CLOUDY    46  19  34 W7        29.83R
N. LAS VEGAS   CLOUDY    44  19  36 N5        29.83S
NELLIS AFB     CLOUDY    46  18  32 NE7       29.83S
HENDERSON      CLOUDY    42  20  41 S3        29.85R
MERCURY        PTCLDY    33  15  47 E6        29.83S
$$



USA.gov is the U.S. government's official web portal to all federal, state and local government web resources and services.